| time (UTC) | temp F | wind direction | speed knots | gust knots | rain 1hr in | rain 24hr in | rain mn in | humidity % | barometer mb |
| 20260510193002 | 61 | 290 | 1.7 | 13.0 | 0.00 | 0.05 | 0.01 | 67 | 1011.9 |
| 20260510191601 | 61 | 278 | 2.6 | 12.2 | 0.00 | 0.05 | 0.01 | 66 | 1011.8 |
| 20260510190108 | 60 | 260 | 0.0 | 5.2 | 0.00 | 0.05 | 0.01 | 70 | 1012.0 |
| 20260510184609 | 60 | 277 | 1.7 | 6.1 | 0.00 | 0.14 | 0.01 | 72 | 1012.0 |
| 20260510183109 | 59 | 297 | 7.8 | 13.9 | 0.00 | 0.14 | 0.01 | 74 | 1012.0 |
| 20260510181615 | 61 | 289 | 3.5 | 8.7 | 0.00 | 0.14 | 0.01 | 70 | 1012.0 |
| 20260510180058 | 60 | 302 | 1.7 | 9.6 | 0.01 | 0.14 | 0.01 | 71 | 1012.2 |
| 20260510174603 | 59 | 330 | 1.7 | 15.6 | 0.01 | 0.19 | 0.01 | 78 | 1012.1 |
| 20260510173054 | 59 | 326 | 0.9 | 6.1 | 0.01 | 0.19 | 0.01 | 81 | 1012.1 |
| 20260510171617 | 58 | 290 | 0.9 | 7.0 | 0.01 | 0.19 | 0.01 | 79 | 1012.4 |
| 20260510170050 | 60 | 210 | 1.7 | 6.1 | 0.00 | 0.18 | 0.00 | 72 | 1012.3 |
| 20260510164557 | 59 | 109 | 0.0 | 11.3 | 0.00 | 0.21 | 0.00 | 77 | 1012.2 |
| 20260510163054 | 58 | 332 | 3.5 | 6.1 | 0.00 | 0.21 | 0.00 | 79 | 1012.2 |
| 20260510161544 | 59 | 210 | 0.9 | 2.6 | 0.00 | 0.21 | 0.00 | 78 | 1012.1 |
| 20260510160044 | 57 | 292 | 0.0 | 9.6 | 0.00 | 0.21 | 0.00 | 80 | 1012.2 |
| 20260510154543 | 58 | 288 | 3.5 | 7.0 | 0.00 | 0.22 | 0.00 | 76 | 1012.1 |
| 20260510153044 | 59 | 297 | 0.9 | 5.2 | 0.00 | 0.22 | 0.00 | 75 | 1011.8 |
| 20260510151541 | 60 | 103 | 0.0 | 0.9 | 0.00 | 0.22 | 0.00 | 75 | 1011.4 |
| 20260510150048 | 60 | 264 | 0.0 | 2.6 | 0.00 | 0.22 | 0.00 | 75 | 1011.4 |
| 20260510144545 | 60 | 352 | 0.0 | 0.9 | 0.00 | 0.22 | 0.00 | 77 | 1011.5 |
| 20260510143033 | 58 | 301 | 0.0 | 0.9 | 0.00 | 0.22 | 0.00 | 83 | 1011.6 |
| 20260510141531 | 55 | 12 | 0.9 | 1.7 | 0.00 | 0.22 | 0.00 | 86 | 1011.8 |
| 20260510140026 | 52 | 309 | 2.6 | 4.3 | 0.00 | 0.22 | 0.00 | 88 | 1011.8 |
| 20260510134523 | 52 | 330 | 3.5 | 6.1 | 0.00 | 0.22 | 0.00 | 90 | 1012.0 |
| 20260510133024 | 51 | 312 | 1.7 | 3.5 | 0.00 | 0.22 | 0.00 | 90 | 1012.0 |
| 20260510131517 | 50 | 309 | 2.6 | 3.5 | 0.00 | 0.22 | 0.00 | 91 | 1011.7 |
| 20260510130016 | 50 | 324 | 0.0 | 1.7 | 0.00 | 0.22 | 0.00 | 91 | 1011.8 |
| 20260510124511 | 49 | 323 | 0.9 | 1.7 | 0.00 | 0.22 | 0.00 | 92 | 1012.2 |
| 20260510123008 | 49 | 297 | 0.0 | 0.9 | 0.00 | 0.22 | 0.00 | 92 | 1012.1 |
| 20260510121507 | 48 | 357 | 0.0 | 0.9 | 0.00 | 0.22 | 0.00 | 92 | 1012.3 |
| 20260510120004 | 48 | 302 | 0.0 | 0.9 | 0.00 | 0.22 | 0.00 | 92 | 1012.2 |
| 20260510114508 | 48 | 296 | 0.0 | 0.0 | 0.00 | 0.22 | 0.00 | 92 | 1011.8 |
| 20260510113003 | 48 | 296 | 0.0 | 0.0 | 0.00 | 0.22 | 0.00 | 93 | 1012.1 |
| 20260510111601 | 47 | 296 | 0.0 | 1.7 | 0.00 | 0.22 | 0.00 | 93 | 1011.9 |
| 20260510104557 | 47 | 33 | 0.0 | 1.7 | 0.00 | 0.22 | 0.00 | 93 | 1011.6 |
| 20260510103057 | 47 | 290 | 0.0 | 1.7 | 0.00 | 0.22 | 0.00 | 93 | 1011.3 |
| 20260510101603 | 47 | 326 | 0.9 | 5.2 | 0.00 | 0.22 | 0.00 | 93 | 1010.8 |
| 20260510100054 | 46 | 293 | 1.7 | 4.3 | 0.00 | 0.22 | 0.00 | 93 | 1010.7 |
| 20260510094552 | 46 | 275 | 0.0 | 0.9 | 0.00 | 0.22 | 0.00 | 93 | 1010.5 |
| 20260510093048 | 46 | 23 | 0.0 | 0.0 | 0.00 | 0.22 | 0.00 | 93 | 1010.4 |
| 20260510091548 | 46 | 23 | 0.0 | 0.9 | 0.00 | 0.22 | 0.00 | 93 | 1010.3 |
| 20260510090048 | 46 | 23 | 0.0 | 0.0 | 0.00 | 0.22 | 0.00 | 93 | 1010.7 |
| 20260510084556 | 46 | 23 | 0.0 | 1.7 | 0.00 | 0.22 | 0.00 | 93 | 1010.7 |
| 20260510081544 | 46 | 304 | 0.9 | 2.6 | 0.00 | 0.22 | 0.00 | 93 | 1011.2 |
| 20260510080058 | 46 | 340 | 0.0 | 0.9 | 0.00 | 0.22 | 0.00 | 93 | 1011.0 |
| 20260510074541 | 45 | 318 | 0.0 | 1.7 | 0.00 | 0.22 | 0.00 | 93 | 1011.0 |
| 20260510073048 | 46 | 330 | 0.9 | 3.5 | 0.00 | 0.22 | 0.00 | 93 | 1010.9 |
| 20260510071540 | 46 | 209 | 0.0 | 4.3 | 0.00 | 0.22 | 0.00 | 93 | 1010.9 |
| 20260510070046 | 46 | 165 | 0.0 | 0.0 | 0.00 | 0.22 | 0.00 | 93 | 1011.1 |
| 20260510064543 | 46 | 159 | 0.0 | 0.0 | 0.00 | 0.22 | 0.00 | 93 | 1011.2 |
| 20260510063038 | 46 | 159 | 0.0 | 0.0 | 0.00 | 0.22 | 0.00 | 93 | 1011.2 |
| 20260510061534 | 46 | 159 | 0.0 | 0.0 | 0.00 | 0.22 | 0.00 | 93 | 1011.5 |
| 20260510060040 | 46 | 159 | 0.0 | 0.0 | 0.00 | 0.22 | 0.00 | 93 | 1011.4 |
| 20260510054532 | 46 | 159 | 0.0 | 0.0 | 0.00 | 0.22 | 0.00 | 93 | 1011.4 |
| 20260510053034 | 46 | 159 | 0.0 | 0.0 | 0.00 | 0.22 | 0.00 | 93 | 1011.5 |
| 20260510051530 | 46 | 159 | 0.0 | 0.0 | 0.00 | 0.22 | 0.00 | 92 | 1011.5 |
| 20260510050036 | 46 | 159 | 0.0 | 0.0 | 0.00 | 0.22 | 0.00 | 92 | 1011.9 |
| 20260510044528 | 46 | 159 | 0.0 | 0.0 | 0.00 | 0.22 | 0.00 | 93 | 1011.7 |
| 20260510043029 | 46 | 159 | 0.0 | 0.0 | 0.00 | 0.22 | 0.00 | 92 | 1011.7 |
| 20260510041527 | 46 | 159 | 0.0 | 0.0 | 0.00 | 0.22 | 0.00 | 92 | 1011.7 |
| 20260510040023 | 46 | 159 | 0.0 | 0.9 | 0.00 | 0.22 | 0.00 | 92 | 1011.7 |
| 20260510034524 | 46 | 107 | 0.0 | 0.9 | 0.00 | 0.22 | 0.22 | 92 | 1011.8 |
| 20260510033024 | 45 | 120 | 0.0 | 0.9 | 0.00 | 0.22 | 0.22 | 93 | 1011.7 |
| 20260510031525 | 45 | 291 | 0.0 | 0.9 | 0.00 | 0.22 | 0.22 | 92 | 1011.9 |
| 20260510030021 | 45 | 99 | 0.0 | 0.9 | 0.00 | 0.22 | 0.22 | 92 | 1012.0 |
| 20260510024522 | 45 | 136 | 0.0 | 0.9 | 0.00 | 0.22 | 0.22 | 92 | 1012.0 |
| 20260510023021 | 45 | 81 | 0.0 | 0.9 | 0.00 | 0.22 | 0.22 | 92 | 1012.2 |
| 20260510021548 | 45 | 79 | 0.0 | 0.9 | 0.00 | 0.22 | 0.22 | 92 | 1012.4 |
| 20260510020019 | 45 | 108 | 0.0 | 0.9 | 0.00 | 0.22 | 0.22 | 92 | 1012.3 |
| 20260510014531 | 45 | 97 | 0.0 | 0.9 | 0.00 | 0.22 | 0.22 | 92 | 1012.4 |
| 20260510013018 | 45 | 138 | 0.0 | 0.9 | 0.00 | 0.22 | 0.22 | 92 | 1012.4 |
| 20260510011518 | 45 | 82 | 0.0 | 0.9 | 0.00 | 0.22 | 0.22 | 92 | 1012.5 |
| 20260510010029 | 45 | 123 | 0.0 | 0.0 | 0.00 | 0.22 | 0.22 | 92 | 1012.5 |
| 20260510004520 | 45 | 134 | 0.0 | 0.0 | 0.00 | 0.22 | 0.22 | 92 | 1012.4 |
| 20260510003019 | 45 | 294 | 0.0 | 0.9 | 0.00 | 0.22 | 0.22 | 92 | 1012.2 |
| 20260510001516 | 46 | 293 | 0.0 | 0.9 | 0.00 | 0.22 | 0.22 | 92 | 1012.0 |
| 20260510000016 | 46 | 294 | 0.0 | 0.0 | 0.00 | 0.22 | 0.22 | 92 | 1011.8 |
| 20260509234518 | 46 | 293 | 0.0 | 0.9 | 0.00 | 0.22 | 0.22 | 92 | 1011.7 |
| 20260509233014 | 46 | 156 | 0.0 | 0.0 | 0.00 | 0.22 | 0.22 | 92 | 1011.6 |
| 20260509231514 | 46 | 132 | 0.0 | 0.9 | 0.00 | 0.22 | 0.22 | 92 | 1011.6 |
| 20260509230022 | 46 | 132 | 0.0 | 0.0 | 0.00 | 0.22 | 0.22 | 92 | 1011.7 |
| 20260509224511 | 46 | 132 | 0.0 | 0.9 | 0.00 | 0.22 | 0.22 | 92 | 1011.8 |
| 20260509223011 | 45 | 132 | 0.0 | 0.0 | 0.00 | 0.22 | 0.22 | 92 | 1011.8 |
| 20260509221511 | 46 | 132 | 0.0 | 0.9 | 0.00 | 0.22 | 0.22 | 92 | 1011.9 |
| 20260509220008 | 46 | 99 | 0.0 | 0.0 | 0.00 | 0.22 | 0.22 | 92 | 1012.0 |
| 20260509214508 | 46 | 99 | 0.0 | 0.9 | 0.00 | 0.22 | 0.22 | 92 | 1012.2 |
| 20260509213010 | 46 | 99 | 0.0 | 0.0 | 0.00 | 0.22 | 0.22 | 91 | 1012.2 |
| 20260509211509 | 46 | 99 | 0.0 | 0.0 | 0.01 | 0.22 | 0.22 | 91 | 1012.2 |
| 20260509210006 | 46 | 112 | 0.0 | 1.7 | 0.01 | 0.22 | 0.22 | 91 | 1012.1 |
| 20260509204505 | 46 | 112 | 0.0 | 0.9 | 0.01 | 0.22 | 0.22 | 91 | 1012.1 |
| 20260509203004 | 46 | 103 | 0.0 | 1.7 | 0.01 | 0.22 | 0.22 | 91 | 1012.2 |
| 20260509201510 | 46 | 118 | 0.0 | 1.7 | 0.01 | 0.21 | 0.21 | 91 | 1012.2 |
| 20260509200002 | 46 | 99 | 0.0 | 0.9 | 0.02 | 0.21 | 0.21 | 91 | 1012.4 |
| 20260509194502 | 46 | 156 | 0.0 | 0.0 | 0.04 | 0.21 | 0.21 | 91 | 1012.3 |